User: anonymous   Login
Location: San Francisco
(37.7750°N, 122.4180°W)
Time: 00:01:28
(UTC-08:00)
Language:

GP-B - Orbit

View from above orbital plane
View from above orbital plane
View from above satellite
View from above satellite

Ground track
Ground track

The orbit data is extracted from the following two-line orbital elements,

1 28230U 04014A   17018.72294468  .00000127  00000-0  15189-4 0  9991
2 28230  89.8557 124.8481 0002464  75.5962 284.5535 14.78504107687018
Epoch (UTC): 18 January 2017 17:21:02
Eccentricity: 0.0002464
inclination: 89.8557°
perigee height: 632 km
apogee height: 636 km
right ascension of ascending node: 124.8481°
argument of perigee: 75.5962°
revolutions per day: 14.78504107
mean anomaly at epoch: 284.5535°
orbit number at epoch: 68701

The dashed part of the orbit path shows where the satellite is in the earth's shadow,  

DLR